Location: Newcastle Observatory
(43.9158°N, 78.5831°W)
Time: 17:11:09
(UTC-04:00)

Amateur Radio Satellites - All Passes

Search period start: 27 July 2016 16:41
Search period end: 28 July 2016 16:41
Location: Newcastle Observatory, 43.9158°N, 78.5831°W

Satellite Date Start Highest point End Downlink Frequencies (MHz)
Time Altitude Azimuth
KKS-1 27 Jul 16:41:37 16:45:46 35° 97° (E) 16:49:54 437.445
GONETS M04 27 Jul 16:43:57 16:52:34 66° 282° (WNW) 17:01:16
NOAA 15 27 Jul 16:45:35 16:47:37 12° 56° (NE) 16:49:39 137.62
PHONESAT 2.4 27 Jul 17:00:39 17:02:01 12° 152° (SSE) 17:03:23 2401.200-2431.200
NOAA 18 27 Jul 17:04:09 17:07:16 15° 56° (NE) 17:10:22 137.9125
ITUPSAT 1 27 Jul 17:04:39 17:08:10 21° 297° (WNW) 17:11:40 437.325
HORYU 2 27 Jul 17:04:40 17:09:05 62° 73° (ENE) 17:13:33 437.375
AO-85 27 Jul 17:09:23 17:11:21 12° 331° (NNW) 17:13:16 145.980
Cosmos 2499 27 Jul 17:10:17 17:19:03 61° 283° (WNW) 17:27:36 435.465 / 435.565
MOZHAYETS 4 27 Jul 17:18:11 17:22:47 87° 286° (WNW) 17:27:21
STARS 27 Jul 17:19:18 17:23:35 44° 99° (E) 17:27:50 437.465
Cubesat XI-IV 27 Jul 17:39:50 17:44:17 27° 64° (ENE) 17:48:46 437.490
BRITE-PL 27 Jul 17:43:03 17:46:49 34° 70° (ENE) 17:50:37 437.365/2234.400
AO-7 27 Jul 17:49:18 17:55:08 20° 270° (W) 18:01:01 29.400- 29.500
CUTE-I 27 Jul 18:02:40 18:07:41 42° 68° (ENE) 18:12:44 437.470
KKS-1 27 Jul 18:18:31 18:22:10 24° 294° (WNW) 18:25:46 437.445
SO-50 27 Jul 18:20:53 18:24:46 27° 246° (WSW) 18:28:33 436.795
NOAA 15 27 Jul 18:21:18 18:26:33 80° 73° (ENE) 18:31:49 137.62
LilacSat-2 27 Jul 18:31:24 18:35:14 68° 75° (ENE) 18:39:08 437.200
DOVE 4 27 Jul 18:34:15 18:37:51 26° 66° (ENE) 18:41:36 437.250
PHONESAT 2.4 27 Jul 18:35:10 18:38:00 33° 168° (SSE) 18:40:49 2401.200-2431.200
CUBESAT XI-V 27 Jul 18:38:29 18:43:08 81° 103° (ESE) 18:47:45 437.345
NOAA 18 27 Jul 18:41:36 18:47:09 89° 254° (WSW) 18:52:45 137.9125
GOMX 1 27 Jul 18:42:42 18:46:51 67° 74° (ENE) 18:51:11 467.674
HORYU 2 27 Jul 18:43:45 18:46:04 14° 270° (W) 18:48:22 437.375
CINEMA 3 27 Jul 18:45:14 18:46:50 12° 58° (ENE) 18:48:26 145.822/145.860
RS-15 27 Jul 18:47:00 18:55:57 25° 261° (W) 19:04:50 29.354- 29.394
GONETS M04 27 Jul 18:47:07 18:51:25 14° 306° (NW) 18:55:44
BEESAT 3 27 Jul 18:53:09 18:56:54 46° 119° (ESE) 19:00:43 437.485
YUBILEINY 27 Jul 18:55:46 18:57:05 10° 49° (NE) 18:58:24 435.215
STARS 27 Jul 18:56:25 18:59:38 20° 296° (WNW) 19:02:51 437.465
HO-68 27 Jul 18:56:41 19:02:31 28° 58° (ENE) 19:08:22 435.675
MOZHAYETS 4 27 Jul 18:58:11 18:59:12 11° 302° (WNW) 19:00:12
BEESAT 2 27 Jul 19:00:29 19:03:56 30° 116° (ESE) 19:07:27 435.950
Cosmos 2499 27 Jul 19:10:09 19:14:08 14° 305° (NW) 19:18:05 435.465 / 435.565
SEEDS 27 Jul 19:11:56 19:12:56 11° 60° (ENE) 19:13:57 437.485
PCSat 27 Jul 19:12:25 19:17:05 31° 110° (ESE) 19:21:48 145.827
Cubesat XI-IV 27 Jul 19:19:01 19:24:08 44° 261° (W) 19:29:17 437.490
BRITE-PL 27 Jul 19:22:24 19:25:28 20° 267° (W) 19:28:33 437.365/2234.400
CUTE-I 27 Jul 19:43:20 19:47:52 27° 266° (W) 19:52:25 437.470
CUBEBUG 2 27 Jul 19:47:58 19:50:45 16° 61° (ENE) 19:53:34 437.445
AAUSAT CUBESAT 2 27 Jul 19:49:12 19:51:34 15° 63° (ENE) 19:53:56 437.432
CANX-2 27 Jul 19:52:22 19:56:25 44° 72° (ENE) 20:00:30 2200.000
NOAA 15 27 Jul 20:04:27 20:06:56 13° 271° (W) 20:09:26 137.62
CUTE 1.7 + AOD 2 27 Jul 20:05:35 20:09:44 53° 73° (ENE) 20:13:54 437.475
Oscar 11 27 Jul 20:07:22 20:08:08 10° 59° (ENE) 20:08:53 145.826/435.025
PHONESAT 2.4 27 Jul 20:11:17 20:14:14 42° 185° (S) 20:17:10 2401.200-2431.200
DOVE 4 27 Jul 20:11:37 20:15:27 31° 265° (W) 20:19:29 437.250
CUBESAT XI-V 27 Jul 20:17:58 20:19:51 12° 300° (WNW) 20:21:45 437.345
STRAND 1 27 Jul 20:18:35 20:23:34 51° 100° (E) 20:28:31 437.568
CINEMA 3 27 Jul 20:18:36 20:23:08 90° 291° (WNW) 20:27:56 145.822/145.860
Cosmos 2504 27 Jul 20:21:07 20:22:59 11° 50° (NE) 20:24:48 435.465 / 435.565
Cosmos 2491 27 Jul 20:21:23 20:25:41 15° 74° (ENE) 20:29:58 435.465 / 435.565
GOMX 1 27 Jul 20:24:29 20:25:32 11° 273° (W) 20:26:36 467.674
NOAA 18 27 Jul 20:26:22 20:28:34 12° 272° (W) 20:30:46 137.9125
BEESAT 3 27 Jul 20:31:48 20:34:49 21° 318° (NW) 20:37:51 437.485
O/OREOS (USA 219) 27 Jul 20:33:43 20:37:34 29° 104° (ESE) 20:41:26 437.305
BEESAT 2 27 Jul 20:38:17 20:41:45 29° 314° (NW) 20:45:16 435.950
ISS 27 Jul 20:39:55 20:40:46 11° 130° (SE) 20:41:37 145.825
HO-68 27 Jul 20:42:34 20:49:42 66° 257° (WSW) 20:56:54 435.675
SEEDS 27 Jul 20:43:45 20:48:00 82° 259° (W) 20:52:14 437.485
YUBILEINY 27 Jul 20:47:58 20:56:33 50° 74° (ENE) 21:05:01 435.215
COMPASS 1 27 Jul 20:54:36 20:58:48 88° 260° (W) 21:03:00 437.405
PCSat 27 Jul 20:55:10 21:00:19 43° 308° (NW) 21:05:31 145.827
FUNcube-1 27 Jul 20:57:47 21:01:47 32° 68° (ENE) 21:05:51 145.935
ZACube-1 27 Jul 20:58:54 21:03:00 34° 69° (ENE) 21:07:11 437.345
UWE-3 27 Jul 20:59:07 21:03:33 52° 72° (ENE) 21:08:06 435.000/436.395/437.385
AIST 2 27 Jul 21:05:12 21:08:49 31° 115° (ESE) 21:12:28 435.215
M-CUBED/EXP-1 PRIME 27 Jul 21:12:42 21:15:51 24° 60° (ENE) 21:19:12 437.505
PRISM 27 Jul 21:20:13 21:23:44 27° 96° (E) 21:27:15 437.425
CUBEBUG 2 27 Jul 21:22:15 21:26:48 65° 259° (W) 21:31:32 437.445
AAUSAT CUBESAT 2 27 Jul 21:22:34 21:26:38 53° 260° (W) 21:30:43 437.432
CANX-2 27 Jul 21:29:36 21:32:30 17° 268° (W) 21:35:23 2200.000
AUBIESAT-1 27 Jul 21:37:48 21:41:22 36° 64° (ENE) 21:45:13 437.475
Oscar 11 27 Jul 21:39:12 21:43:33 89° 243° (WSW) 21:47:56 145.826/435.025
DELFI C3 27 Jul 21:40:52 21:44:36 40° 71° (ENE) 21:48:19 145.870
CUTE 1.7 + AOD 2 27 Jul 21:43:32 21:45:54 14° 270° (W) 21:48:17 437.475
PHONESAT 2.4 27 Jul 21:47:57 21:50:21 21° 201° (SSW) 21:52:45 2401.200-2431.200
STRAND 1 27 Jul 21:58:32 22:02:24 22° 298° (WNW) 22:06:15 437.568
HUMSAT D 27 Jul 22:08:31 22:12:34 41° 71° (ENE) 22:16:38 437.325/437.525
Cosmos 2504 27 Jul 22:10:41 22:18:44 54° 75° (ENE) 22:26:09 435.465 / 435.565
Cosmos 2491 27 Jul 22:12:15 22:20:55 75° 94° (E) 22:29:36 435.465 / 435.565
O/OREOS (USA 219) 27 Jul 22:12:58 22:16:54 30° 302° (WNW) 22:20:52 437.305
ISS 27 Jul 22:13:26 22:16:41 81° 147° (SSE) 22:19:57 145.825
AO-85 27 Jul 22:15:10 22:19:17 33° 46° (NE) 22:23:04 145.980
TIGRISAT 27 Jul 22:21:54 22:23:43 12° 88° (E) 22:25:30 435.000
FUNcube-1 27 Jul 22:34:08 22:38:00 28° 265° (W) 22:41:57 145.935
ZACube-1 27 Jul 22:35:33 22:39:20 25° 266° (W) 22:43:10 437.345
HO-68 27 Jul 22:37:06 22:38:44 11° 276° (W) 22:40:23 435.675
UNISAT 6 27 Jul 22:37:16 22:40:33 19° 91° (E) 22:43:46 437.425
UWE-3 27 Jul 22:37:16 22:40:20 17° 270° (W) 22:43:25 435.000/436.395/437.385
AIST 2 27 Jul 22:43:37 22:47:17 30° 314° (NW) 22:50:58 435.215
PCSat 27 Jul 22:43:45 22:45:13 11° 331° (NNW) 22:46:42 145.827
YUBILEINY 27 Jul 22:45:11 22:53:06 39° 275° (W) 23:00:58 435.215
M-CUBED/EXP-1 PRIME 27 Jul 22:46:53 22:50:15 30° 260° (W) 22:53:53 437.505
ESTCUBE 1 27 Jul 22:55:24 22:59:05 25° 66° (ENE) 23:02:46 437.505/2401.250
PRISM 27 Jul 22:55:33 22:58:59 26° 293° (WNW) 23:02:24 437.425
50 SAT 27 Jul 22:55:43 22:57:17 12° 63° (ENE) 22:58:51 437.505
CUBEBUG 1 27 Jul 23:09:13 23:12:37 23° 66° (ENE) 23:16:02 437.445
VELOX 1 27 Jul 23:09:48 23:13:06 21° 65° (ENE) 23:16:26 145.980
AUBIESAT-1 27 Jul 23:13:07 23:15:59 20° 263° (W) 23:19:02 437.475
ANTELSAT 27 Jul 23:14:53 23:19:21 44° 98° (E) 23:23:41 437.575/2403.000
DELFI C3 27 Jul 23:17:02 23:19:37 17° 268° (W) 23:22:12 145.870
NANOSAT C BR1 27 Jul 23:40:37 23:42:22 12° 89° (E) 23:44:07 145.865
DUCHIFAT 1 27 Jul 23:44:27 23:46:21 13° 90° (E) 23:48:13 145.980
HUMSAT D 27 Jul 23:45:17 23:48:22 19° 268° (W) 23:51:28 437.325/437.525
ISS 27 Jul 23:50:36 23:53:24 26° 346° (NNW) 23:56:13 145.825
DX 1 27 Jul 23:51:08 23:55:11 41° 70° (ENE) 23:59:16 434.975-435.025
AISAT 27 Jul 23:53:29 23:57:48 61° 73° (ENE) 00:02:10 437.250
AO-85 27 Jul 23:55:53 23:59:37 28° 246° (WSW) 00:03:06 145.980
TIGRISAT 27 Jul 23:56:18 00:00:57 73° 285° (WNW) 00:05:28 435.000
QB50P1 28 Jul 00:02:05 00:05:29 22° 94° (E) 00:08:50 145.935-145.965
UKube-1 28 Jul 00:03:29 00:07:34 44° 71° (ENE) 00:11:40 .
Cosmos 2504 28 Jul 00:04:44 00:11:38 32° 277° (W) 00:18:07 435.465 / 435.565
POPSAT HIP 1 28 Jul 00:08:27 00:12:03 25° 95° (E) 00:15:37 437.405
Cosmos 2491 28 Jul 00:11:45 00:18:40 26° 296° (WNW) 00:25:39 435.465 / 435.565
UNISAT 6 28 Jul 00:13:03 00:17:31 47° 289° (WNW) 00:21:52 437.425
AIST 1 28 Jul 00:20:43 00:24:37 31° 75° (ENE) 00:28:31
50 SAT 28 Jul 00:26:56 00:30:30 51° 260° (W) 00:34:05 437.505
QB50P2 28 Jul 00:29:11 00:33:20 46° 99° (E) 00:37:26 145.880/145.840
ESTCUBE 1 28 Jul 00:31:41 00:35:45 34° 263° (W) 00:39:51 437.505/2401.250
POLYITAN 1 28 Jul 00:31:49 00:35:59 47° 99° (E) 00:40:06 437.675
SPROUT 28 Jul 00:35:16 00:39:31 76° 74° (ENE) 00:43:50 437.525
CUBEBUG 1 28 Jul 00:44:47 00:48:43 35° 263° (W) 00:52:43 437.445
VELOX 1 28 Jul 00:45:13 00:49:19 39° 262° (W) 00:53:28 145.980
ANTELSAT 28 Jul 00:52:16 00:55:44 21° 296° (WNW) 00:59:08 437.575/2403.000
GONETS M04 28 Jul 00:57:30 01:02:21 15° 55° (NE) 01:07:10
Cosmos 2499 28 Jul 01:11:31 01:13:05 11° 51° (NE) 01:14:37 435.465 / 435.565
NANOSAT C BR1 28 Jul 01:14:17 01:18:31 64° 287° (WNW) 01:22:44 145.865
DUCHIFAT 1 28 Jul 01:18:13 01:22:27 61° 286° (WNW) 01:26:38 145.980
Oscar 19 28 Jul 01:19:56 01:21:44 12° 88° (E) 01:23:31 437.125/150
ISS 28 Jul 01:27:58 01:30:34 21° 6° (N) 01:33:09 145.825
TISAT 1 28 Jul 01:28:06 01:32:16 70° 74° (ENE) 01:36:29 437.305
DX 1 28 Jul 01:28:25 01:31:33 19° 267° (W) 01:34:42 434.975-435.025
BUGSAT 1 28 Jul 01:29:38 01:33:55 80° 103° (ESE) 01:38:11 437.445
AISAT 28 Jul 01:32:35 01:34:41 13° 270° (W) 01:36:49 437.250
JAS-2 28 Jul 01:37:21 01:42:37 62° 102° (ESE) 01:48:19 435.910
QB50P1 28 Jul 01:37:25 01:41:20 34° 291° (WNW) 01:45:12 145.935-145.965
UKube-1 28 Jul 01:40:53 01:43:50 18° 267° (W) 01:46:47 .
POPSAT HIP 1 28 Jul 01:44:03 01:47:50 30° 292° (WNW) 01:51:35 437.405
SWISSCUBE 28 Jul 01:49:45 01:53:49 29° 66° (ENE) 01:57:55 437.505
AIST 1 28 Jul 01:58:36 02:02:03 23° 272° (W) 02:05:30
QB50P2 28 Jul 02:05:52 02:08:48 18° 296° (WNW) 02:11:43 145.880/145.840
POLYITAN 1 28 Jul 02:08:32 02:11:26 18° 296° (WNW) 02:14:19 437.675
BEESAT 28 Jul 02:10:34 02:15:01 40° 69° (ENE) 02:19:30 436.000
SPROUT 28 Jul 02:15:35 02:16:00 10° 272° (W) 02:16:25 437.525
ITUPSAT 1 28 Jul 02:33:51 02:38:37 66° 73° (ENE) 02:43:24 437.325
Gurwin Techsat 1B 28 Jul 02:43:57 02:48:45 33° 96° (E) 02:53:32 435.225
MOZHAYETS 4 28 Jul 02:47:03 02:49:07 13° 60° (ENE) 02:51:10
GONETS M04 28 Jul 02:52:15 03:01:04 69° 79° (E) 03:09:52
ITAMSAT 1 28 Jul 02:55:22 02:57:54 14° 89° (E) 03:00:25 435.822/435.867
Oscar 19 28 Jul 02:56:31 03:01:44 88° 285° (WNW) 03:06:56 437.125/150
Cosmos 2499 28 Jul 03:00:41 03:08:27 56° 76° (ENE) 03:15:36 435.465 / 435.565
ISS 28 Jul 03:04:21 03:07:32 48° 25° (NNE) 03:10:42 145.825
TISAT 1 28 Jul 03:07:20 03:08:24 11° 271° (W) 03:09:28 437.305
BUGSAT 1 28 Jul 03:07:20 03:08:39 11° 300° (WNW) 03:09:59 437.445
BEESAT 3 28 Jul 03:08:59 03:12:48 44° 50° (NE) 03:16:36 437.485
BEESAT 2 28 Jul 03:16:51 03:20:27 31° 47° (NE) 03:24:01 435.950
JAS-2 28 Jul 03:23:42 03:27:20 19° 298° (WNW) 03:31:08 435.910
SWISSCUBE 28 Jul 03:27:10 03:31:30 34° 263° (W) 03:35:52 437.505
KKS-1 28 Jul 03:40:51 03:44:58 39° 69° (ENE) 03:49:07 437.445
BEESAT 28 Jul 03:49:06 03:52:56 24° 266° (W) 03:56:47 436.000
AO-7 28 Jul 03:53:54 04:00:41 27° 93° (E) 04:07:22 29.400- 29.500
PCSat 28 Jul 03:58:12 04:03:13 36° 49° (NE) 04:08:11 145.827
CUBESAT XI-V 28 Jul 04:09:24 04:10:49 11° 59° (ENE) 04:12:13 437.345
CUSAT 1 28 Jul 04:13:07 04:17:07 71° 99° (E) 04:20:16 437.405
ITUPSAT 1 28 Jul 04:14:18 04:16:54 14° 270° (W) 04:19:31 437.325
STARS 28 Jul 04:17:03 04:21:15 46° 71° (ENE) 04:25:30 437.465
MOZHAYETS 4 28 Jul 04:21:00 04:25:38 80° 258° (WSW) 04:30:18
Gurwin Techsat 1B 28 Jul 04:23:54 04:28:40 34° 294° (WNW) 04:33:25 435.225
ITAMSAT 1 28 Jul 04:32:45 04:37:58 78° 286° (WNW) 04:43:08 435.822/435.867
Oscar 19 28 Jul 04:37:55 04:40:17 13° 303° (WNW) 04:42:40 437.125/150
ISS 28 Jul 04:41:04 04:43:49 25° 223° (SW) 04:46:32 145.825
DANDE 28 Jul 04:42:39 04:48:02 57° 98° (E) 04:52:04 436.750
BEESAT 3 28 Jul 04:47:24 04:50:11 18° 248° (WSW) 04:52:56 437.485
GONETS M04 28 Jul 04:50:09 04:57:06 27° 279° (W) 05:04:04
Cosmos 2499 28 Jul 04:54:35 05:01:01 29° 278° (W) 05:07:05 435.465 / 435.565
BEESAT 2 28 Jul 04:54:46 04:58:12 28° 245° (WSW) 05:01:38 435.950
RS-15 28 Jul 04:57:10 04:58:43 10° 90° (E) 05:00:17 29.354- 29.394
HORYU 2 28 Jul 04:57:13 04:57:55 10° 88° (E) 04:58:36 437.375
O/OREOS (USA 219) 28 Jul 05:04:51 05:05:49 11° 46° (NE) 05:06:46 437.305
KKS-1 28 Jul 05:18:16 05:21:40 21° 266° (W) 05:25:05 437.445
AIST 2 28 Jul 05:24:49 05:28:39 34° 48° (NE) 05:32:28 435.215
PCSat 28 Jul 05:41:38 05:46:37 38° 248° (WSW) 05:51:34 145.827
CUBESAT XI-V 28 Jul 05:42:52 05:47:29 89° 257° (WSW) 05:52:06 437.345
AO-7 28 Jul 05:45:48 05:54:07 72° 293° (WNW) 06:02:23 29.400- 29.500
BRITE-PL 28 Jul 05:46:52 05:48:43 12° 89° (E) 05:50:36 437.365/2234.400
STARS 28 Jul 05:54:53 05:57:51 18° 268° (W) 06:00:50 437.465
STRAND 1 28 Jul 06:00:20 06:02:26 13° 57° (ENE) 06:04:34 437.568
ITAMSAT 1 28 Jul 06:14:45 06:16:34 12° 305° (NW) 06:18:22 435.822/435.867
CUTE-I 28 Jul 06:19:41 06:22:32 14° 89° (E) 06:25:23 437.470
DANDE 28 Jul 06:28:07 06:30:47 14° 288° (WNW) 06:33:07 436.750
HORYU 2 28 Jul 06:30:32 06:35:02 80° 286° (WNW) 06:39:29 437.375
NOAA 15 28 Jul 06:35:29 06:39:53 26° 95° (E) 06:44:17 137.62
O/OREOS (USA 219) 28 Jul 06:41:31 06:46:03 73° 65° (ENE) 06:50:36 437.305
GOMX 1 28 Jul 06:42:40 06:46:31 21° 92° (E) 06:50:31 467.674
RS-15 28 Jul 06:57:04 07:08:04 56° 112° (ESE) 07:19:37 29.354- 29.394
NOAA 18 28 Jul 07:02:33 07:07:36 35° 97° (E) 07:12:36 137.9125
AIST 2 28 Jul 07:03:29 07:07:02 27° 245° (WSW) 07:10:34 435.215
BRITE-PL 28 Jul 07:22:49 07:27:39 84° 283° (WNW) 07:32:53 437.365/2234.400
Cubesat XI-IV 28 Jul 07:34:28 07:39:49 68° 102° (ESE) 07:45:07 437.490
STRAND 1 28 Jul 07:35:39 07:40:49 84° 74° (ENE) 07:46:00 437.568
LilacSat-2 28 Jul 07:37:34 07:41:28 86° 100° (E) 07:45:19 437.200
AO-7 28 Jul 07:40:10 07:45:30 19° 314° (NW) 07:50:48 29.400- 29.500
CUTE-I 28 Jul 07:57:50 08:03:11 77° 287° (WNW) 08:08:29 437.470
DOVE 4 28 Jul 08:07:31 08:12:39 63° 100° (E) 08:17:54 437.250
HO-68 28 Jul 08:09:36 08:15:05 23° 92° (E) 08:20:33 435.675
PRISM 28 Jul 08:11:08 08:14:27 24° 67° (ENE) 08:17:46 437.425
CINEMA 3 28 Jul 08:12:25 08:16:20 22° 92° (E) 08:20:12 145.822/145.860
NOAA 15 28 Jul 08:14:52 08:19:48 42° 292° (WNW) 08:24:43 137.62
GOMX 1 28 Jul 08:19:54 08:24:48 52° 288° (WNW) 08:29:58 467.674
Cosmos 2491 28 Jul 08:21:00 08:29:08 40° 71° (ENE) 08:37:15 435.465 / 435.565
O/OREOS (USA 219) 28 Jul 08:23:11 08:24:49 12° 263° (W) 08:26:26 437.305
SEEDS 28 Jul 08:27:35 08:29:58 15° 91° (E) 08:32:21 437.485
SO-50 28 Jul 08:34:59 08:39:49 69° 122° (ESE) 08:44:39 436.795
COMPASS 1 28 Jul 08:37:41 08:39:41 13° 90° (E) 08:41:40 437.405
NOAA 18 28 Jul 08:43:14 08:48:14 35° 295° (WNW) 08:53:12 137.9125
BRITE-PL 28 Jul 09:03:54 09:05:30 12° 300° (WNW) 09:07:08 437.365/2234.400
AAUSAT CUBESAT 2 28 Jul 09:04:00 09:07:06 20° 93° (E) 09:10:11 437.432
RS-15 28 Jul 09:09:24 09:20:42 53° 318° (NW) 09:32:38 29.354- 29.394
CANX-2 28 Jul 09:11:28 09:15:42 74° 103° (ESE) 09:19:53 2200.000
CUBEBUG 2 28 Jul 09:12:16 09:16:12 26° 93° (E) 09:20:03 437.445
Cubesat XI-IV 28 Jul 09:15:44 09:19:20 19° 300° (WNW) 09:22:56 437.490
STRAND 1 28 Jul 09:18:33 09:20:38 12° 272° (W) 09:22:43 437.568
TIGRISAT 28 Jul 09:21:43 09:24:13 14° 60° (ENE) 09:26:43 435.000
CUTE 1.7 + AOD 2 28 Jul 09:24:40 09:28:55 89° 100° (E) 09:33:07 437.475
Oscar 11 28 Jul 09:26:21 09:28:53 15° 91° (E) 09:31:23 145.826/435.025
UNISAT 6 28 Jul 09:37:18 09:40:46 21° 64° (ENE) 09:44:17 437.425
CUTE-I 28 Jul 09:40:23 09:42:19 12° 305° (NW) 09:44:16 437.470
PRISM 28 Jul 09:46:06 09:49:39 29° 264° (W) 09:53:14 437.425
DOVE 4 28 Jul 09:46:17 09:49:53 19° 297° (WNW) 09:53:32 437.250
CINEMA 3 28 Jul 09:48:51 09:53:39 46° 289° (WNW) 09:58:25 145.822/145.860
YUBILEINY 28 Jul 09:50:19 09:58:45 55° 90° (E) 10:07:17 435.215
HO-68 28 Jul 09:56:14 10:03:25 72° 291° (WNW) 10:10:33 435.675
SEEDS 28 Jul 10:01:56 10:05:58 49° 287° (WNW) 10:09:59 437.485
COMPASS 1 28 Jul 10:11:32 10:15:36 54° 286° (WNW) 10:19:36 437.405
ANTELSAT 28 Jul 10:14:31 10:18:58 46° 71° (ENE) 10:23:29 437.575/2403.000
SO-50 28 Jul 10:16:59 10:20:46 22° 321° (NW) 10:24:32 436.795
Cosmos 2491 28 Jul 10:17:51 10:26:06 48° 272° (W) 10:34:22 435.465 / 435.565
FUNcube-1 28 Jul 10:20:07 10:24:31 52° 99° (E) 10:28:47 145.935
ZACube-1 28 Jul 10:21:40 10:26:08 58° 100° (E) 10:30:28 437.345
UWE-3 28 Jul 10:23:40 10:28:19 87° 283° (WNW) 10:32:49 435.000/436.395/437.385
M-CUBED/EXP-1 PRIME 28 Jul 10:24:40 10:27:51 18° 96° (E) 10:30:59 437.505
NANOSAT C BR1 28 Jul 10:34:44 10:36:23 12° 60° (ENE) 10:38:02 145.865
DUCHIFAT 1 28 Jul 10:38:19 10:40:03 12° 61° (ENE) 10:41:48 145.980
AAUSAT CUBESAT 2 28 Jul 10:38:56 10:42:41 34° 290° (WNW) 10:46:24 437.432
CUBEBUG 2 28 Jul 10:48:34 10:52:53 35° 291° (WNW) 10:57:05 437.445
Cosmos 2504 28 Jul 10:49:08 10:57:25 46° 88° (E) 11:05:38 435.465 / 435.565
AUBIESAT-1 28 Jul 10:49:15 10:53:06 25° 99° (E) 10:56:54 437.475
CANX-2 28 Jul 10:49:28 10:50:58 12° 299° (WNW) 10:52:27 2200.000
DELFI C3 28 Jul 10:51:30 10:55:22 54° 100° (E) 10:59:14 145.870
TIGRISAT 28 Jul 10:55:39 11:00:17 73° 258° (WSW) 11:05:00 435.000
QB50P1 28 Jul 10:56:05 10:59:16 21° 65° (ENE) 11:02:28 145.935-145.965
Oscar 11 28 Jul 11:01:07 11:05:19 51° 287° (WNW) 11:09:29 145.826/435.025
POPSAT HIP 1 28 Jul 11:02:24 11:05:47 24° 66° (ENE) 11:09:12 437.405
UNISAT 6 28 Jul 11:12:42 11:17:09 46° 262° (W) 11:21:42 437.425
QB50P2 28 Jul 11:22:56 11:26:55 41° 71° (ENE) 11:30:57 145.880/145.840
POLYITAN 1 28 Jul 11:25:33 11:29:33 41° 70° (ENE) 11:33:36 437.675
HUMSAT D 28 Jul 11:25:52 11:30:03 64° 101° (ESE) 11:34:09 437.325/437.525
RS-15 28 Jul 11:26:57 11:36:53 28° 350° (N) 11:47:06 29.354- 29.394
AISAT 28 Jul 11:45:00 11:45:51 10° 88° (E) 11:46:41 437.250
HO-68 28 Jul 11:45:53 11:49:55 16° 310° (NW) 11:53:57 435.675
YUBILEINY 28 Jul 11:48:00 11:55:54 36° 291° (WNW) 12:03:54 435.215
JAS-2 28 Jul 11:51:51 11:56:54 31° 66° (ENE) 12:01:36 435.910
ANTELSAT 28 Jul 11:52:31 11:55:55 20° 268° (W) 11:59:20 437.575/2403.000
50 SAT 28 Jul 11:56:11 11:57:13 11° 90° (E) 11:58:16 437.505
FUNcube-1 28 Jul 11:57:25 12:00:19 17° 297° (WNW) 12:03:11 145.935
M-CUBED/EXP-1 PRIME 28 Jul 11:58:00 12:02:38 58° 293° (WNW) 12:07:14 437.505
ZACube-1 28 Jul 11:59:13 12:01:56 16° 298° (WNW) 12:04:35 437.345
UWE-3 28 Jul 12:02:47 12:03:59 11° 302° (WNW) 12:05:11 435.000/436.395/437.385
NANOSAT C BR1 28 Jul 12:07:17 12:11:30 74° 257° (WSW) 12:15:48 145.865
DUCHIFAT 1 28 Jul 12:10:57 12:15:09 72° 257° (WSW) 12:19:26 145.980
BUGSAT 1 28 Jul 12:20:23 12:24:26 64° 73° (ENE) 12:28:33 437.445
SPROUT 28 Jul 12:21:51 12:23:30 12° 89° (E) 12:25:07 437.525
ESTCUBE 1 28 Jul 12:22:13 12:26:30 43° 99° (E) 12:30:47 437.505/2401.250
AUBIESAT-1 28 Jul 12:23:16 12:27:35 39° 296° (WNW) 12:31:53 437.475
DELFI C3 28 Jul 12:27:52 12:29:47 13° 297° (WNW) 12:31:42 145.870
QB50P1 28 Jul 12:30:49 12:34:48 38° 262° (W) 12:38:48 145.935-145.965
CUBEBUG 1 28 Jul 12:31:29 12:35:35 36° 97° (E) 12:39:40 437.445
VELOX 1 28 Jul 12:33:40 12:37:42 33° 97° (E) 12:41:44 145.980
Oscar 19 28 Jul 12:37:13 12:41:01 21° 62° (ENE) 12:44:49 437.125/150
POPSAT HIP 1 28 Jul 12:37:33 12:41:24 33° 263° (W) 12:45:18 437.405
Cosmos 2504 28 Jul 12:42:27 12:50:49 44° 288° (WNW) 12:59:09 435.465 / 435.565
AIST 1 28 Jul 12:52:38 12:55:22 17° 86° (E) 12:58:08
QB50P2 28 Jul 12:59:52 13:02:54 19° 267° (W) 13:05:58 145.880/145.840
POLYITAN 1 28 Jul 13:02:32 13:05:32 19° 268° (W) 13:08:34 437.675
HUMSAT D 28 Jul 13:03:10 13:05:08 13° 298° (WNW) 13:07:05 437.325/437.525
AO-7 28 Jul 13:09:00 13:11:15 11° 37° (NE) 13:13:29 29.400- 29.500
DX 1 28 Jul 13:13:33 13:17:55 64° 102° (ESE) 13:22:15 434.975-435.025
AISAT 28 Jul 13:18:23 13:22:52 79° 285° (WNW) 13:27:20 437.250
UKube-1 28 Jul 13:24:46 13:29:06 66° 102° (ESE) 13:33:24 .
50 SAT 28 Jul 13:27:39 13:31:09 49° 287° (WNW) 13:34:37 437.505
JAS-2 28 Jul 13:36:24 13:41:56 38° 262° (W) 13:47:01 435.910
RS-15 28 Jul 13:43:26 13:54:20 35° 25° (NNE) 14:05:16 29.354- 29.394
SPROUT 28 Jul 13:55:35 13:59:53 67° 286° (WNW) 14:04:10 437.525
BUGSAT 1 28 Jul 13:58:58 14:00:15 11° 271° (W) 14:01:33 437.445
ESTCUBE 1 28 Jul 13:59:44 14:03:01 20° 296° (WNW) 14:06:18 437.505/2401.250
GONETS M04 28 Jul 14:03:43 14:08:00 15° 74° (ENE) 14:12:19
Gurwin Techsat 1B 28 Jul 14:06:14 14:11:27 60° 72° (ENE) 14:16:43 435.225
CUBEBUG 1 28 Jul 14:08:12 14:11:40 23° 294° (WNW) 14:15:08 437.445
AO-85 28 Jul 14:09:23 14:14:43 65° 121° (ESE) 14:19:48 145.980
VELOX 1 28 Jul 14:10:21 14:14:02 26° 294° (WNW) 14:17:41 145.980
ITAMSAT 1 28 Jul 14:13:54 14:18:10 26° 64° (ENE) 14:22:25 435.822/435.867
Oscar 19 28 Jul 14:14:58 14:19:57 53° 260° (W) 14:24:59 437.125/150
AIST 1 28 Jul 14:28:36 14:32:37 41° 283° (WNW) 14:36:41
ITUPSAT 1 28 Jul 14:34:22 14:37:06 15° 90° (E) 14:39:49 437.325
CUSAT 1 28 Jul 14:43:09 14:46:00 38° 78° (ENE) 14:49:28 437.405
TISAT 1 28 Jul 14:46:02 14:50:19 79° 285° (WNW) 14:54:33 437.305
DX 1 28 Jul 14:51:14 14:53:36 14° 299° (WNW) 14:55:57 434.975-435.025
AO-7 28 Jul 14:54:06 15:01:50 43° 60° (ENE) 15:09:34 29.400- 29.500
UKube-1 28 Jul 15:02:27 15:04:36 14° 299° (WNW) 15:06:46 .
DANDE 28 Jul 15:19:33 15:21:48 24° 76° (ENE) 15:24:13 436.750
SWISSCUBE 28 Jul 15:25:19 15:30:00 54° 100° (E) 15:34:38 437.505
SO-50 28 Jul 15:25:49 15:28:51 17° 35° (NE) 15:31:50 436.795
Cosmos 2499 28 Jul 15:37:14 15:45:33 47° 88° (E) 15:53:37 435.465 / 435.565
BEESAT 28 Jul 15:46:28 15:51:16 79° 104° (ESE) 15:56:01 436.000
Gurwin Techsat 1B 28 Jul 15:48:09 15:51:49 19° 269° (W) 15:55:29 435.225
AO-85 28 Jul 15:51:17 15:55:36 25° 319° (NW) 15:59:44 145.980
ITAMSAT 1 28 Jul 15:52:24 15:57:23 44° 261° (W) 16:02:24 435.822/435.867
GONETS M04 28 Jul 15:54:34 16:03:12 75° 94° (E) 16:11:55
HORYU 2 28 Jul 15:55:53 15:58:02 13° 60° (ENE) 16:00:11 437.375
RS-15 28 Jul 15:56:40 16:09:07 79° 54° (NE) 16:21:23 29.354- 29.394
ITUPSAT 1 28 Jul 16:10:38 16:15:22 63° 287° (WNW) 16:20:03 437.325
MOZHAYETS 4 28 Jul 16:15:19 16:18:51 22° 93° (E) 16:22:20
